Regional Weather Roundup
Issued by NWS

Home | Current Version | Previous Version | Graphics & Text | Print | Product List | Glossary On
Versions: 1 2 3 4 5 6 7 8 9 10 11 12 13 14 15 16 17 18 19 20 21 22 23 24 25 26 27 28 29 30 31 32 33 34 35 36 37 38 39 40 41 42 43 44 45 46 47 48 49 50
000
ASUS43 KDTX 031301
RWRMI
MICHIGAN HOURLY REGIONAL WEATHER ROUNDUP
NATIONAL WEATHER SERVICE DETROIT/PONTIAC MI
900 AM EDT SUN MAY 03 2015

NOTE: "FAIR" INDICATES FEW OR NO CLOUDS BELOW 12,000 FEET WITH NO
SIGNIFICANT WEATHER AND/OR OBSTRUCTION TO VISIBILITY.

MIZ047>049-052>055-059>063-066>070-074>076-081>083-031400-
SOUTHEAST LOWER MICHIGAN

CITY           SKY/WX    TMP DP  RH WIND       PRES   REMARKS
ADRIAN         SUNNY     58  45  62 W6        30.08R
ALMA           MOSUNNY   62  41  47 SW6       30.02R
ANN ARBOR      SUNNY     62  45  53 W5        30.06R
BAD AXE        PTSUNNY   65  37  35 SW8       30.01R
CARO           CLOUDY    61  43  52 SW3       30.02R
DETROIT CITY   SUNNY     63  41  44 W9        30.06R
DETROIT        MOSUNNY   65  43  44 SW6       30.07R
FLINT          SUNNY     65  43  44 W9        30.04R
HILLSDALE      SUNNY     65  41  41 SW6       30.07R
HOWELL         SUNNY     64  42  44 SW7       30.05S

CITY           SKY/WX    TMP DP  RH WIND       PRES   REMARKS
JACKSON        SUNNY     64  41  42 SW13      30.06R
LAMBERTVILLE   SUNNY     64  43  45 W5        30.08R
LANSING        SUNNY     63  42  46 SW10      30.04S
LAPEER         FAIR      63  41  43 W8        30.04R
MASON          SUNNY     64  40  42 SW7       30.05S
MONROE         SUNNY     61  46  59 SW6       30.06R
MT. CLEMENS    MOSUNNY   63  42  46 W14       30.03R
PONTIAC        MOSUNNY   64  42  44 W9        30.05R
PORT HOPE        N/A     66  38  35 SW8       29.98R
PORT HURON     SUNNY     61  45  55 SW5       30.04R
TRI CITIES     SUNNY     63  41  44 SW13      30.01R
MIDLAND        PTSUNNY   63  40  42 SW6       30.00S
TROY           SUNNY     63  41  45 SW6       30.07R
SAGINAW HB     MOSUNNY   63  39  42 SW13      30.01S
$$
MIZ043>046-050>051-056>058-064>065-071>073-077>080-031400-
SOUTHWEST LOWER MICHIGAN

CITY           SKY/WX    TMP DP  RH WIND       PRES   REMARKS
BATTLE CREEK   SUNNY     63  44  50 SW9       30.05S
BENTON HARBOR  MOSUNNY   62  44  51 S7        30.01F
BIG RAPIDS     MOSUNNY   63  41  44 SW7       29.99R
COLDWATER      SUNNY     62  42  47 SW8       30.06S
FREMONT        FAIR      59  38  46 S7        29.99S
HOLLAND        PTSUNNY   65  43  44 SW13      30.01S
GRAND RAPIDS   MOSUNNY   63  41  44 SW10      30.02R
IONIA          FAIR      65  42  43 SW10      30.01S
KALAMAZOO      MOSUNNY   62  45  53 S8        30.05S
LUDINGTON      CLOUDY    62  45  53 S7        29.96S
MARSHALL       SUNNY     63  43  48 SW6       30.05S
MOUNT PLEASANT CLOUDY    61  39  44 SW5       30.00R
MUSKEGON       PTSUNNY   60  41  49 S12       30.00R
SOUTH HAVEN    MOSUNNY   65  42  42 SW7       30.01F
$$
MIZ016>042-031400-
NORTHERN LOWER MICHIGAN

CITY           SKY/WX    TMP DP  RH WIND       PRES   REMARKS
ALPENA         SUNNY     65  39  38 SW8       29.94S
BEAVER ISLAND  MOSUNNY   61  44  52 SW14G23   29.89S
BELLAIRE       PTSUNNY   63  40  43 S5        29.94S
CADILLAC       PTSUNNY   59  41  51 SW7       29.97S
CHARLEVOIX     SUNNY     63  42  45 S10G16    29.94S
FRANKFORT      MOSUNNY   64  42  43 SW7       29.93S
GAYLORD        SUNNY     62  39  42 SW12      29.95R
GRAYLING       SUNNY     63  37  39 CALM      29.97S
HARBOR SPRINGS MOSUNNY   63  40  43 SW3       29.92S
HOUGHTON LAKE  PTSUNNY   60  40  47 SW5       29.98R
MANISTEE       SUNNY     61  45  55 SW6       29.95S
OSCODA         SUNNY     62  39  42 SW9       29.96S
PELLSTON       MOSUNNY   66  43  43 SW13G21   29.91R
ROGERS CITY    SUNNY     66  43  43 SW10      29.93R
TRAVERSE CITY  MOSUNNY   65  42  43 S7        29.93R
$$
MIZ007>008-015-031400-
EASTERN UPPER MICHIGAN

CITY           SKY/WX    TMP DP  RH WIND       PRES   REMARKS
KINROSS        MOSUNNY   57  43  58 S5        29.89S
MACKINAC ISLAN MOSUNNY   60  42  51 SW6       29.89S
NEWBERRY       SUNNY     52  40  64 SW12G18   29.87R
S. S. MARIE    MOSUNNY   53  41  63 VRB5      29.89R
MUNISING         N/A     63  45  51 S10       29.81S
$$
MIZ004>006-011>014-085-031400-
CENTRAL UPPER MICHIGAN

CITY           SKY/WX    TMP DP  RH WIND       PRES   REMARKS
MANISTIQUE     SUNNY     45  38  75 S10       29.87S
ESCANABA       SUNNY     57  45  62 SW7       29.85S
MENOMINEE      SUNNY     63  46  55 SW10      29.86S
SAWYER-GWINN   MOSUNNY   57  46  67 SW13      29.82S
$$
MIZ001>003-009>011-084-031400-
WESTERN UPPER MICHIGAN

CITY           SKY/WX    TMP DP  RH WIND       PRES   REMARKS
IRON MOUNTAIN  SUNNY     64  49  57 SW7       29.83S
HOUGHTON       CLOUDY    63  49  60 SW13      29.76R
COPPER HARBOR    N/A     65  48  54 W12G20    29.72R
IRONWOOD       CLOUDY    63  50  63 SW12G17   29.73F
$$

ABBREVIATIONS USED IN REMARKS
   TC - TEMPERATURE IN CELSIUS
  WCI - WIND CHILL INDEX
   HX - HEAT INDEX
  VSB - VISIBILITY



USA.gov is the U.S. government's official web portal to all federal, state and local government web resources and services.